Troy, AL

11:41 PM CST on December 17, 2017 (GMT -0600)
Troy Municipal

Weather History for KTOI - November, 2013

Change the Weather History Date:

Sunday, November 3, 2013

  Actual Average Record
Temperature  
Mean Temperature 54 °F 60 °F  
Max Temperature 69 °F 73 °F 87 °F (2016)
Min Temperature 39 °F 46 °F 30 °F (2014)
Degree Days  
Heating Degree Days 11 7  
Month to date heating degree days 17 20  
Since 1 July heating degree days 62 118  
Growing Degree Days 4 (Base 50)    
Moisture  
Dew Point 40 °F    
Average Humidity 60    
Maximum Humidity 92    
Minimum Humidity 28    
Precipitation  
Precipitation 0.00 in 0.11 in 0.86 in (2002)
Month to date precipitation 0.61 0.35  
Year to date precipitation 49.19 45.49  
Snow  
Snow 0.00 in - - ()
Month to date snowfall 0.0  
Since 1 July snowfall 0.0  
Since 1 September snowfall 0.0  
Snow Depth 0.00 in    
Sea Level Pressure  
Sea Level Pressure 30.19 in    
Wind  
Wind Speed 3 mph (NNE)    
Max Wind Speed 14 mph    
Max Gust Speed 20 mph    
Visibility 10 miles    
Events Rain    
T = Trace of Precipitation, MM = Missing Value Source: NWS Daily Summary

Daily Weather History Graph

Daily Weather History Graph

Search for Another Location

Airport or City:

Trip Planner

Search our weather history database for the weather conditions in past years. The results will help you decide how hot, cold, wet, or windy it might be!

Date:

Astronomy

Nov. 03, 2013 Rise Set
Actual Time 6:02 AM CST 4:52 PM CST
Civil Twilight 5:37 AM CST 5:17 PM CST
Nautical Twilight 5:08 AM CST 5:46 PM CST
Astronomical Twilight 4:39 AM CST 6:15 PM CST
Moon 6:04 AM CST (11/3) 5:08 PM CST (11/3)
Length of Visible Light 11h 40m
Length of Day
10h 50m
New Moon, 0% of the Moon is Illuminated
Nov 3
New Moon
Nov 9
First Quarter
Nov 17
Full
Nov 25
Last Quarter
Dec 2
New

Hourly Weather History & Observations

Time (CST) Temp. Dew Point Humidity Pressure Visibility Wind Dir Wind Speed Gust Speed Precip Events Conditions
12:53 AM 48.9 °F 41.0 °F 74% 30.10 in 10.0 mi NNW 5.8 mph - N/A   Clear
1:53 AM 46.0 °F 41.0 °F 83% 30.11 in 10.0 mi Calm Calm - N/A   Clear
1:53 AM 42.1 °F 39.0 °F 89% 30.13 in 10.0 mi Calm Calm - N/A   Clear
2:53 AM 41.0 °F 37.9 °F 89% 30.13 in 10.0 mi Calm Calm - N/A   Clear
3:53 AM 39.9 °F 37.9 °F 93% 30.15 in 10.0 mi Calm Calm - N/A   Clear
4:53 AM 39.9 °F 37.0 °F 89% 30.18 in 10.0 mi Calm Calm - N/A   Clear
5:53 AM 39.9 °F 36.0 °F 86% 30.19 in 10.0 mi Calm Calm - N/A   Clear
6:53 AM 42.1 °F 39.0 °F 89% 30.21 in 10.0 mi Calm Calm - N/A   Clear
7:53 AM 53.1 °F 43.0 °F 69% 30.22 in 10.0 mi NNE 8.1 mph - 0.00 in Rain Light Rain
8:53 AM 57.9 °F 42.1 °F 56% 30.23 in 10.0 mi NNE 8.1 mph - 0.00 in   Clear
9:38 AM 60.8 °F 41.0 °F 48% 30.24 in 10.0 mi NNE 11.5 mph - N/A   Partly Cloudy
9:53 AM 61.0 °F 41.0 °F 48% 30.24 in 10.0 mi NE 6.9 mph - N/A   Partly Cloudy
10:53 AM 64.0 °F 39.0 °F 40% 30.23 in 10.0 mi NNE 8.1 mph - N/A   Clear
11:53 AM 66.0 °F 37.9 °F 36% 30.20 in 10.0 mi Variable 6.9 mph - N/A   Clear
12:53 PM 68.0 °F 37.0 °F 32% 30.18 in 10.0 mi NNE 10.4 mph 17.3 mph N/A   Clear
1:53 PM 69.1 °F 36.0 °F 30% 30.17 in 10.0 mi NNE 4.6 mph - N/A   Clear
2:53 PM 68.0 °F 35.1 °F 30% 30.16 in 10.0 mi NE 8.1 mph - N/A   Clear
3:53 PM 66.9 °F 36.0 °F 32% 30.17 in 10.0 mi ENE 4.6 mph - N/A   Clear
4:53 PM 60.1 °F 42.1 °F 51% 30.19 in 10.0 mi Calm Calm - N/A   Clear
5:53 PM 52.0 °F 43.0 °F 71% 30.20 in 10.0 mi Calm Calm - N/A   Clear
6:53 PM 48.9 °F 44.1 °F 83% 30.21 in 10.0 mi Calm Calm - N/A   Clear
7:53 PM 46.9 °F 43.0 °F 86% 30.22 in 10.0 mi Calm Calm - N/A   Clear
8:53 PM 46.9 °F 43.0 °F 86% 30.24 in 10.0 mi Calm Calm - N/A   Clear
9:53 PM 44.1 °F 39.9 °F 85% 30.26 in 10.0 mi Calm Calm - N/A   Clear
10:53 PM 42.1 °F 39.0 °F 89% 30.27 in 9.0 mi Calm Calm - N/A   Clear